Location: Delia
(51.6321°N, 112.3740°W)
Time: 19:49:45
(UTC+00:00)

Envisat - Pass Details

Date: 06 December 2021
Orbit: 764 x 766 km, 98.2° (Epoch: 26 January)

Event Time Altitude Azimuth Distance (km) Brightness Sun altitude
Rises 12:36:08 0° 15° (NNE) 3,248 6.4 -24.3°
Reaches altitude 10° 12:38:28 10° 17° (NNE) 2,317 5.6 -23.9°
Maximum altitude 12:43:35 78° 103° (ESE) 790 3.1 -23.1°
Drops below altitude 10° 12:48:39 10° 191° (S) 2,298 5.4 -22.4°
Sets 12:50:57 0° 192° (SSW) 3,220 6.2 -22.0°
